Location: Arpaise
(41.0333°N, 14.7333°E)
Time: 08:03:58
(UTC+00:00)

NOSS 3-4 (C) - Pass Details

Date: 05 July 2020
Orbit: 891 x 1321 km, 63.4° (Epoch: 12 July)

Event Time Altitude Azimuth Distance (km) Brightness Sun altitude
Rises 22:07:41 0° 325° (NW) 3,852 7.8 -24.9°
Reaches altitude 10° 22:10:13 10° 326° (NW) 2,953 6.9 -25.0°
Maximum altitude 22:17:21 86° 55° (NE) 1,189 3.8 -25.3°
Enters shadow 22:19:54 47° 142° (SE) 1,561 4.1 -25.4°
